This demonstration page uses our WeatherBlox Daily Observations layout. Learn more.

Left ArrowRight Arrow

38.88101, -77.10428

Hourly Observations for February 8, 2021

Temp ( °F °C ) Dew Point ( °F °C ) Humidity (%) Winds ( mph kmh ) Pressure ( in mb ) Visibility ( mi km ) Precip ( " mm )
12:52 am 00:52 Clear 29 -1.7 7 -13.9 39 39 NNW 12 19 30.27 1025 10 16 0.00 0.00
1:52 am 01:52 Clear 28 -2.2 6 -14.4 39 39 NNW 10 17 30.29 1026 10 16 0.00 0.00
2:52 am 02:52 Clear 28 -2.2 5 -15 37 37 NNW 10 17 30.32 1027 10 16 0.00 0.00
3:52 am 03:52 Mostly Clear 27 -2.8 8 -13.3 45 45 N 9 15 30.33 1027 10 16 0.00 0.00
4:52 am 04:52 Mostly Clear 28 -2.2 9 -12.8 44 44 NNE 15 24 30.34 1027 10 16 0.00 0.00
5:52 am 05:52 Mostly Clear 27 -2.8 8 -13.3 45 45 NNE 14 22 30.36 1028 10 16 0.00 0.00
6:52 am 06:52 Mostly Clear 26 -3.3 8 -13.3 46 46 NNE 9 15 30.40 1029 10 16 0.00 0.00
7:52 am 07:52 Sunny 26 -3.3 10 -12.2 51 51 ENE 9 15 30.43 1030 10 16 0.00 0.00
8:52 am 08:52 Sunny 28 -2.2 9 -12.8 44 44 NNE 9 15 30.44 1031 10 16 0.00 0.00
9:52 am 09:52 Sunny 28 -2.2 9 -12.8 44 44 E 5 7 30.47 1032 10 16 0.00 0.00
10:52 am 10:52 Sunny 31 -0.6 8 -13.3 38 38 NNE 3 6 30.48 1032 10 16 0.00 0.00
11:52 am 11:52 Sunny 32 0 10 -12.2 40 40 Calm 30.47 1032 10 16 0.00 0.00
12:52 pm 12:52 Mostly Sunny 35 1.7 14 -10 42 42 SSE 7 11 30.44 1031 10 16 0.00 0.00
1:52 pm 13:52 Mostly Sunny 36 2.2 14 -10 40 40 S 8 13 30.41 1030 10 16 0.00 0.00
2:52 pm 14:52 Mostly Sunny 38 3.3 15 -9.4 39 39 S 7 11 30.38 1029 10 16 0.00 0.00
3:52 pm 15:52 Mostly Sunny 39 3.9 17 -8.3 41 41 S 10 17 30.38 1029 10 16 0.00 0.00
4:52 pm 16:52 Mostly Sunny 37 2.8 19 -7.2 48 48 S 12 19 30.38 1029 10 16 0.00 0.00
5:52 pm 17:52 Partly Cloudy 35 1.7 19 -7.2 52 52 S 6 9 30.39 1029 10 16 0.00 0.00
6:52 pm 18:52 Mostly Cloudy 34 1.1 20 -6.7 56 56 SE 12 19 30.38 1029 10 16 0.00 0.00
7:52 pm 19:52 Mostly Cloudy 32 0 18 -7.8 56 56 SSE 6 9 30.39 1029 10 16 0.00 0.00
8:52 pm 20:52 Partly Cloudy 32 0 18 -7.8 56 56 SE 5 7 30.39 1029 10 16 0.00 0.00
9:52 pm 21:52 Partly Cloudy 32 0 20 -6.7 61 61 SSE 7 11 30.39 1029 10 16 0.00 0.00
10:52 pm 22:52 Mostly Cloudy 31 -0.6 21 -6.1 67 67 SSE 6 9 30.36 1028 10 16 0.00 0.00
11:52 pm 23:52 Mostly Cloudy 31 -0.6 21 -6.1 67 67 SE 6 9 30.35 1028 10 16 0.00 0.00

Powered by AerisWeather